Location: Rounton
(54.4000°N, 1.3500°W)
Time: 23:37:19
(UTC+01:00)

Vanguard 1 - Pass Details

Date: 27 February 2024
Orbit: 653 x 3825 km, 34.2° (Epoch: 21 April)

Event Time Altitude Azimuth Distance (km) Brightness Sun altitude
Rises 02:45:38 0° 275° (W) 7,607 - -35.6°
Reaches altitude 10° 02:54:56 10° 255° (WSW) 6,881 - -34.6°
Maximum altitude 03:04:03 14° 231° (SW) 6,559 - -33.5°
Drops below altitude 10° 03:13:01 10° 207° (SSW) 6,680 - -32.5°
Sets 03:21:57 0° 186° (S) 7,225 - -31.4°
